[[{"header":{"parameterUnit":"m.s-1","parameterCategory":1,"la1":30.2991,"la2":30.254,"lo1":-89.0895,"lo2":-89.0444,"dy":0.0017,"dx":0.0017,"nx":28,"ny":28,"refTime":"2025-03-14T03:00:00:Z","depth":0,"parameterNumber":2,"parameterNumberName":"U-component_of_WINDS"},"data":[0,0,0,0,0,0,0,0,0,0,0,0,0,0,0,0,0,0,0,0,0,0,0,0,0,0,0,0,0,0,0,0,0,0,0,0,0,0,0,0,0,0,0,0,0,0,0,0,0,0,0,0,0,0,0,0,0,0,-3.4493,-3.4493,0,-3.4543,-3.4544,-3.4544,-3.4547,-3.4547,-3.4546,-3.4546,-3.4594,-3.4596,-3.4598,0,0,0,0,0,0,0,0,0,0,0,0,0,-3.4395,-3.4397,-3.4493,-3.4493,-3.4494,-3.4543,-3.4544,-3.4545,-3.4547,-3.4547,-3.4546,-3.4545,-3.4593,-3.4596,-3.4598,0,0,0,0,0,0,0,0,0,0,0,0,0,-3.4441,-3.4398,-3.4492,-3.4501,-3.4503,-3.4543,-3.4544,-3.4545,-3.4547,-3.4547,-3.4546,-3.4545,-3.4593,-3.4595,-3.4598,-3.4632,0,0,-3.4606,-3.4608,0,0,0,0,0,0,0,0,-3.4438,-3.4444,-3.4499,-3.4501,-3.4502,-3.4538,-3.4527,-3.4574,-3.4548,-3.453,-3.4545,-3.4544,-3.4576,-3.458,-3.4591,-3.4634,-3.4636,-3.4607,-3.4608,-3.4609,-3.461,0,0,0,0,0,0,0,-3.4435,-3.4442,-3.4512,-3.45,-3.4502,-3.4502,-3.4507,-3.4536,-3.4557,-3.4532,-3.4532,-3.4538,-3.4576,-3.4589,-3.4592,-3.4637,-3.4607,-3.4609,-3.4611,-3.4612,-3.4711,-3.4712,0,0,0,0,0,0,-3.4431,-3.444,-3.4511,-3.4514,-3.4468,-3.4504,-3.451,-3.4527,-3.4557,-3.4561,-3.4539,-3.4538,-3.4584,-3.4589,-3.4594,-3.4635,-3.4609,-3.4612,-3.4614,-3.471,-3.4711,-3.4712,0,0,0,0,0,0,-3.4429,-3.4437,-3.4509,-3.4477,-3.4486,-3.4507,-3.4526,-3.4529,-3.4541,-3.4562,-3.4566,-3.4548,-3.4584,-3.459,-3.4623,-3.4637,-3.4613,-3.4616,-3.4709,-3.471,-3.4712,-3.4718,0,0,0,0,0,0,-3.4426,-3.4436,-3.445,-3.4477,-3.4488,-3.4537,-3.4527,-3.453,-3.4546,-3.4546,-3.4571,-3.4575,-3.4584,-3.4619,-3.4626,-3.464,-3.4618,-3.4707,-3.4709,-3.4711,-3.4717,-3.472,-3.4722,0,0,0,0,0,-3.4422,-3.4449,-3.4451,-3.4459,-3.4506,-3.4538,-3.4544,-3.4555,-3.4547,-3.4561,-3.4575,-3.4574,-3.4635,-3.4622,-3.463,-3.4646,-3.4707,-3.4709,-3.4711,-3.4716,-3.4719,-3.4722,0,0,0,0,0,0,-3.4421,-3.4453,-3.4455,-3.4491,-3.4512,-3.4539,-3.4556,-3.4558,-3.4581,-3.4579,-3.4591,-3.4596,-3.4629,-3.4641,-3.4626,-3.468,-3.467,-3.4674,-3.4671,-3.4674,-3.4677,-3.4672,-3.462,0,0,0,0,0,-3.4426,-3.4451,-3.4477,-3.4506,-3.4517,-3.4535,-3.4549,-3.4556,-3.4578,-3.4586,-3.4602,-3.4622,-3.4646,-3.4661,-3.4684,-3.472,-3.4725,-3.4734,-3.4737,-3.4739,-3.4742,-3.4761,-3.4765,-3.4719,-3.4719,-3.4719,0,0,-3.4434,-3.4454,-3.4469,-3.4507,-3.4524,-3.4548,-3.4542,-3.4568,-3.4586,-3.459,-3.4621,-3.4634,-3.4658,-3.4692,-3.4707,-3.4703,-3.4756,-3.4742,-3.4744,-3.4745,-3.4764,-3.4768,-3.4772,-3.4721,-3.4721,-3.472,0,0,-3.4462,-3.448,-3.4507,-3.4525,-3.4551,-3.4563,-3.457,-3.4596,-3.4605,-3.4638,-3.4641,-3.4662,-3.4703,-3.4719,-3.4733,-3.4769,-3.4769,-3.4776,-3.4789,-3.4808,-3.4811,-3.4815,-3.4826,-3.483,-3.4779,-3.4779,-3.4779,0,-3.4468,-3.4507,-3.452,-3.4547,-3.4562,-3.4569,-3.4595,-3.4611,-3.4643,-3.4654,-3.4649,-3.47,-3.4717,-3.4754,-3.4763,-3.4775,-3.4781,-3.4772,-3.481,-3.4814,-3.4817,-3.4828,-3.4832,-3.478,-3.478,-3.4779,-3.4779,0,-3.4513,-3.454,-3.4558,-3.459,-3.4608,-3.4635,-3.4651,-3.4668,-3.4674,-3.4686,-3.4719,-3.4739,-3.4766,-3.4776,-3.4781,-3.4815,-3.4811,-3.4808,-3.4797,-3.4821,-3.4832,-3.4836,-3.478,-3.478,-3.478,-3.478,0,0,-3.4539,-3.458,-3.4586,-3.4601,-3.4631,-3.4651,-3.4678,-3.4706,-3.4719,-3.4742,-3.4764,-3.4799,-3.4797,-3.4812,-3.482,-3.4836,-3.4862,-3.4832,-3.4832,-3.4835,-3.4899,-3.49,-3.4904,-3.4864,-3.4865,-3.4865,-3.4897,0,-3.4569,-3.4617,-3.4631,-3.4671,-3.4695,-3.4702,-3.4726,-3.4746,-3.4759,-3.4781,-3.4795,-3.4819,-3.4815,-3.4824,-3.4841,-3.4856,-3.4875,-3.4854,-3.4882,-3.4883,-3.4874,-3.491,-3.4911,-3.4939,-3.4901,-3.4902,-3.4902,0,-3.4609,-3.4634,-3.4677,-3.4705,-3.4715,-3.4736,-3.4763,-3.4784,-3.4808,-3.4816,-3.4834,-3.484,-3.4868,-3.4858,-3.4895,-3.488,-3.4893,-3.4902,-3.4904,-3.4905,-3.4893,-3.4911,-3.4949,-3.4952,-3.4909,-3.4909,-3.4908,0,-3.4622,-3.4666,-3.4698,-3.471,-3.4744,-3.4758,-3.4772,-3.4795,-3.4811,-3.4835,-3.4845,-3.4871,-3.4885,-3.4905,-3.4918,-3.4909,-3.4954,-3.4945,-3.496,-3.4959,-3.4967,-3.4966,-3.5005,-3.4978,-3.4978,-3.4978,-3.4978,0,-3.4653,-3.4678,-3.4704,-3.4723,-3.4752,-3.4767,-3.4795,-3.481,-3.4831,-3.4852,-3.486,-3.488,-3.4897,-3.4919,-3.493,-3.4958,-3.4965,-3.4971,-3.4973,-3.4969,-3.4968,-3.4976,-3.4974,-3.4979,-3.4979,-3.4979,-3.4979,0,-3.4671,-3.4689,-3.4724,-3.4753,-3.4761,-3.4781,-3.4806,-3.4824,-3.4838,-3.4865,-3.4873,-3.4894,-3.492,-3.4936,-3.4969,-3.4976,-3.5008,-3.501,-3.5,-3.5,-3.5014,-3.5012,-3.5059,-3.5065,-3.5035,-3.5036,-3.5036,0,-3.4688,-3.4708,-3.4741,-3.4756,-3.4771,-3.4796,-3.4813,-3.4829,-3.4846,-3.4875,-3.489,-3.4918,-3.494,-3.4982,-3.4999,-3.5025,-3.5027,-3.5042,-3.503,-3.5026,-3.5025,-3.5023,-3.5025,-3.5042,-3.5043,-3.5043,-3.5043,0,-3.4717,-3.4725,-3.4749,-3.4777,-3.4797,-3.482,-3.4842,-3.4854,-3.4874,-3.4893,-3.4921,-3.4938,-3.4973,-3.4999,-3.5027,-3.5041,-3.5045,-3.5047,-3.5052,-3.5047,-3.5039,-3.5042,-3.5003,-3.5045,-3.5045,-3.5045,-3.5045,-3.5045,-3.4734,-3.4752,-3.4778,-3.4804,-3.4823,-3.4844,-3.4863,-3.488,-3.4904,-3.4934,-3.4942,-3.4971,-3.4995,-3.5032,-3.5047,-3.5069,-3.5067,-3.5074,-3.5075,-3.5076,-3.5076,-3.5038,-3.5075,-3.5074,-3.5074,-3.5074,-3.5074,0,-3.4761,-3.4779,-3.4803,-3.4835,-3.4856,-3.486,-3.4886,-3.4902,-3.4928,-3.495,-3.4973,-3.5005,-3.5031,-3.5052,-3.5079,-3.5092,-3.5095,-3.5099,-3.5097,-3.51,-3.5077,-3.507,-3.5096,-3.5096,-3.5096,-3.5096,-3.5096,-3.5096,-3.4778,-3.4808,-3.482,-3.486,-3.4877,-3.4906,-3.492,-3.4939,-3.4957,-3.4993,-3.5015,-3.5029,-3.5051,-3.5079,-3.5103,-3.5109,-3.5117,-3.5121,-3.5126,-3.5104,-3.5101,-3.5099,-3.5092,-3.5123,-3.5123,-3.5147,-3.5147,-3.5147]},{"header":{"parameterUnit":"m.s-1","parameterCategory":1,"la1":30.2991,"la2":30.254,"lo1":-89.0895,"lo2":-89.0444,"dy":0.0017,"dx":0.0017,"nx":28,"ny":28,"refTime":"2025-03-14T03:00:00:Z","depth":0,"parameterNumber":3,"parameterNumberName":"V-component_of_WINDS"},"data":[0,0,0,0,0,0,0,0,0,0,0,0,0,0,0,0,0,0,0,0,0,0,0,0,0,0,0,0,0,0,0,0,0,0,0,0,0,0,0,0,0,0,0,0,0,0,0,0,0,0,0,0,0,0,0,0,0,0,5.0026,5.0025,0,4.9938,4.9937,4.9936,4.9898,4.9898,4.9898,4.9898,4.9804,4.9802,4.9799,0,0,0,0,0,0,0,0,0,0,0,0,0,5.016,5.0157,5.0026,5.0025,5.0024,4.9939,4.9937,4.9936,4.9898,4.9898,4.9898,4.9899,4.9805,4.9802,4.9799,0,0,0,0,0,0,0,0,0,0,0,0,0,5.009,5.0157,5.0026,4.9995,4.9991,4.9939,4.9937,4.9936,4.9898,4.9898,4.9898,4.9899,4.9806,4.9803,4.9799,4.977,0,0,4.9787,4.9785,0,0,0,0,0,0,0,0,5.0094,5.0085,5.0,4.9997,4.9992,4.993,4.995,4.988,4.9898,4.9933,4.9899,4.9899,4.9846,4.9838,4.9821,4.9766,4.9762,4.9786,4.9784,4.9782,4.9781,0,0,0,0,0,0,0,5.0099,5.0088,4.9991,4.9999,4.9994,4.9985,4.9975,4.9937,4.9889,4.993,4.9927,4.9918,4.9843,4.9825,4.9819,4.976,4.9786,4.9783,4.978,4.9779,4.9682,4.9681,0,0,0,0,0,0,5.0109,5.0093,4.9994,4.9989,5.0045,4.9982,4.9971,4.9949,4.9889,4.9881,4.9917,4.9916,4.9832,4.9824,4.9815,4.9781,4.9782,4.9778,4.9776,4.9682,4.9682,4.9681,0,0,0,0,0,0,5.0112,5.01,4.9997,5.004,5.0026,4.998,4.9955,4.9948,4.9929,4.988,4.9871,4.9908,4.9832,4.9821,4.9783,4.9777,4.9777,4.9773,4.9682,4.9682,4.9681,4.971,0,0,0,0,0,0,5.0116,5.0102,5.009,5.004,5.0024,4.9966,4.9955,4.9946,4.9923,4.9921,4.9868,4.986,4.9831,4.9789,4.9779,4.9772,4.977,4.9682,4.9682,4.9682,4.9709,4.9711,4.9712,0,0,0,0,0,5.0121,5.0099,5.009,5.0078,5.0008,4.9966,4.9957,4.9925,4.9923,4.9911,4.988,4.9862,4.978,4.9786,4.9774,4.9765,4.9683,4.9682,4.9682,4.9709,4.971,4.9712,0,0,0,0,0,0,5.0147,5.0092,5.008,5.0042,5.001,4.996,4.9943,4.9928,4.9893,4.9892,4.9854,4.9842,4.9808,4.9783,4.979,4.9737,4.973,4.9727,4.9754,4.9756,4.9757,4.9763,4.9767,0,0,0,0,0,5.0149,5.012,5.0073,5.0044,5.0029,4.999,4.997,4.9949,4.9913,4.9898,4.9864,4.9829,4.9796,4.9774,4.974,4.9706,4.9696,4.9695,4.9696,4.9698,4.9695,4.9679,4.9679,4.968,4.968,4.968,0,0,5.0151,5.0117,5.0101,5.0049,5.0021,4.9992,4.9977,4.9946,4.9925,4.9893,4.9856,4.9831,4.9789,4.9754,4.9737,4.9732,4.9694,4.9697,4.9698,4.9695,4.9679,4.9679,4.9679,4.9679,4.968,4.968,0,0,5.0141,5.0112,5.0086,5.006,5.002,4.9995,4.999,4.9943,4.9926,4.9889,4.9866,4.984,4.9782,4.9755,4.9734,4.9721,4.9703,4.9711,4.9717,4.9702,4.9702,4.9701,4.9699,4.9698,4.9709,4.9709,4.9709,0,5.0148,5.0104,5.0075,5.0047,5.0026,4.9999,4.9974,4.995,4.99,4.9886,4.9882,4.9813,4.9783,4.9743,4.9741,4.9723,4.9717,4.9716,4.9704,4.9704,4.9703,4.97,4.9699,4.971,4.971,4.971,4.971,0,5.0117,5.0088,5.0072,5.0028,5.0005,4.9979,4.9946,4.9927,4.991,4.9886,4.9851,4.9815,4.9776,4.9765,4.9746,4.9724,4.9722,4.9712,4.9704,4.9705,4.9702,4.97,4.9712,4.9712,4.9711,4.9711,0,0,5.0116,5.0061,5.0056,5.0038,4.9994,4.9971,4.9945,4.9909,4.9894,4.9862,4.984,4.9796,4.9788,4.9763,4.9742,4.9729,4.9725,4.972,4.9719,4.9724,4.9701,4.971,4.9709,4.9714,4.9713,4.9713,4.9706,0,5.01,5.0054,5.0029,4.9993,4.9968,4.9945,4.9923,4.9894,4.9873,4.9848,4.9823,4.9793,4.9783,4.9769,4.9755,4.9728,4.972,4.9728,4.9693,4.9693,4.9705,4.9707,4.9715,4.9709,4.9704,4.9704,4.9703,0,5.0075,5.0048,5.001,4.9975,4.9963,4.9943,4.9911,4.9888,4.9856,4.9841,4.9818,4.9799,4.9772,4.9768,4.9731,4.9738,4.9723,4.9708,4.9707,4.9702,4.9698,4.9703,4.9706,4.9706,4.9701,4.9701,4.9701,0,5.0081,5.0034,5.0007,4.9992,4.9949,4.9936,4.9918,4.9887,4.9869,4.9841,4.9829,4.9798,4.978,4.9757,4.973,4.9729,4.9698,4.969,4.9686,4.9687,4.9679,4.968,4.968,4.9669,4.9669,4.9669,4.9669,0,5.0066,5.0044,5.001,4.9992,4.9969,4.9942,4.9919,4.9899,4.9873,4.9852,4.983,4.9811,4.9777,4.9754,4.9733,4.9708,4.97,4.9688,4.9683,4.969,4.9692,4.9679,4.9679,4.9668,4.9668,4.9669,4.9669,0,5.0067,5.0043,5.0012,4.9976,4.9967,4.9952,4.9921,4.9904,4.9884,4.9859,4.9851,4.9819,4.9791,4.9763,4.9725,4.9711,4.9688,4.968,4.9699,4.9696,4.9694,4.9695,4.9687,4.9685,4.9674,4.9674,4.9674,0,5.0059,5.0043,5.0007,4.9994,4.9977,4.9954,4.9937,4.9911,4.9895,4.9861,4.9849,4.9822,4.9797,4.9756,4.9728,4.97,4.9692,4.9692,4.9687,4.9697,4.9694,4.9696,4.9696,4.9692,4.9693,4.9693,4.9693,0,5.0049,5.0039,5.0016,4.9991,4.9973,4.995,4.9927,4.9917,4.9888,4.987,4.9844,4.9826,4.9791,4.9764,4.9734,4.9715,4.97,4.9695,4.9693,4.97,4.9713,4.9708,4.9704,4.9695,4.9695,4.9694,4.9694,4.9694,5.0045,5.0032,5.0007,4.9983,4.9965,4.9946,4.993,4.991,4.9888,4.9859,4.9846,4.982,4.9794,4.9753,4.9735,4.9715,4.971,4.9706,4.9705,4.9705,4.9708,4.9717,4.9709,4.9709,4.9709,4.9709,4.9709,0,5.0035,5.002,4.9999,4.997,4.9953,4.9944,4.992,4.9906,4.9884,4.9862,4.9841,4.9813,4.9789,4.9762,4.9736,4.9726,4.9719,4.972,4.9721,4.9717,4.9713,4.9718,4.9727,4.9727,4.9727,4.9727,4.9727,4.9727,5.0028,5.0006,4.9994,4.9964,4.9948,4.9925,4.9912,4.9895,4.9878,4.9849,4.983,4.9814,4.9791,4.9764,4.9742,4.9735,4.9727,4.9731,4.9722,4.9718,4.9717,4.9715,4.972,4.973,4.973,4.9729,4.9729,4.9729]}]]